DW9029 Weather Reports


Display with metric or nautical units.
time (UTC)temp
F
wind
direction
speed
MPH
gust
MPH
rain 1hr
in
rain 24hr
in
rain mn
in
humidity
%
barometer
mb
20260901221905 79 229 0.0 0.0 0.00 0.00 0.00 55 1016.5
20260901221405 79 242 0.0 0.0 0.00 0.00 0.00 55 1016.5
20260901220905 79 242 0.0 0.0 0.00 0.00 0.00 55 1016.5
20260901220404 79 265 0.0 2.0 0.00 0.00 0.00 55 1016.4
20260901214905 79 249 0.0 3.0 0.00 0.00 0.00 55 1016.4
20260901214404 80 254 0.0 0.0 0.00 0.00 0.00 54 1016.5
20260901213905 80 272 0.0 0.0 0.00 0.00 0.00 54 1016.6
20260901211904 81 216 2.0 8.0 0.00 0.00 0.00 56 1016.4
20260901211405 82 214 2.0 8.0 0.00 0.00 0.00 57 1016.3
20260901210905 82 210 3.0 9.0 0.00 0.00 0.00 57 1016.2
20260901210405 82 199 0.0 7.0 0.00 0.00 0.00 57 1016.2
20260901204405 83 219 5.0 14.0 0.00 0.00 0.00 55 1015.7
20260901203905 84 210 0.0 9.0 0.00 0.00 0.00 54 1015.6
20260901203405 84 216 2.0 12.0 0.00 0.00 0.00 54 1015.5
20260901201404 85 209 0.0 8.0 0.00 0.00 0.00 52 1015.0
20260901200905 86 229 3.0 10.0 0.00 0.00 0.00 50 1014.9
20260901194905 87 219 3.0 9.0 0.00 0.00 0.00 40 1014.4
20260901193905 88 238 4.0 9.0 0.00 0.00 0.00 40 1014.1
20260901193405 88 240 2.0 10.0 0.00 0.00 0.00 39 1013.9
20260901191904 89 250 1.0 9.0 0.00 0.00 0.00 38 1013.5
20260901191405 89 245 2.0 9.0 0.00 0.00 0.00 38 1013.4
20260901190404 90 249 5.0 12.0 0.00 0.00 0.00 37 1013.2
20260901184905 91 246 2.0 9.0 0.00 0.00 0.00 37 1013.1
20260901184405 91 259 3.0 8.0 0.00 0.00 0.00 36 1013.0
20260901183905 91 247 4.0 8.0 0.00 0.00 0.00 36 1012.9
20260901183404 91 246 4.0 12.0 0.00 0.00 0.00 36 1012.9
20260901181905 92 257 5.0 9.0 0.00 0.00 0.00 34 1012.8
20260901180905 93 246 5.0 12.0 0.00 0.00 0.00 34 1012.7
20260901180404 93 262 5.0 12.0 0.00 0.00 0.00 32 1012.7
20260901174905 94 259 3.0 12.0 0.00 0.00 0.00 29 1012.6
20260901174404 95 251 4.0 10.0 0.00 0.00 0.00 28 1012.6
20260901173904 95 267 6.0 10.0 0.00 0.00 0.00 28 1012.6
20260901173405 95 267 5.0 12.0 0.00 0.00 0.00 28 1012.6
20260901171905 96 256 1.0 8.0 0.00 0.00 0.00 28 1012.7
20260901171404 96 279 2.0 7.0 0.00 0.00 0.00 29 1012.7
20260901170904 95 224 2.0 7.0 0.00 0.00 0.00 30 1012.7
20260901170404 95 218 3.0 9.0 0.00 0.00 0.00 31 1012.6
20260901164904 96 246 1.0 6.0 0.00 0.00 0.00 33 1012.6
20260901163904 95 296 0.0 0.0 0.00 0.00 0.00 35 1012.6
20260901163405 95 222 0.0 6.0 0.00 0.00 0.00 35 1012.7
20260901161905 95 181 1.0 3.0 0.00 0.00 0.00 35 1012.7
20260901160904 94 197 1.0 6.0 0.00 0.00 0.00 36 1012.8
20260901160405 94 154 0.0 7.0 0.00 0.00 0.00 36 1012.8
20260901154904 94 191 1.0 5.0 0.00 0.00 0.00 36 1012.9
20260901154405 94 127 1.0 9.0 0.00 0.00 0.00 37 1012.9
20260901153906 93 148 1.0 9.0 0.00 0.00 0.00 37 1013.0
20260901153404 93 144 5.0 12.0 0.00 0.00 0.00 37 1013.0
20260901151405 94 199 3.0 9.0 0.00 0.00 0.00 37 1013.3
20260901150906 94 188 3.0 10.0 0.00 0.00 0.00 37 1013.3
20260901150405 93 154 1.0 10.0 0.00 0.00 0.00 37 1013.3
20260901144905 94 191 2.0 10.0 0.00 0.00 0.00 37 1013.3
20260901144405 93 208 2.0 7.0 0.00 0.00 0.00 37 1013.4
20260901143405 93 190 1.0 10.0 0.00 0.00 0.00 37 1013.5
20260901141905 93 177 1.0 12.0 0.00 0.00 0.00 39 1013.6
20260901140405 93 196 0.0 8.0 0.00 0.00 0.00 41 1013.8
20260901134904 92 153 0.0 7.0 0.00 0.00 0.00 41 1014.0
20260901134405 92 203 5.0 10.0 0.00 0.00 0.00 39 1014.1
20260901133905 92 183 3.0 10.0 0.00 0.00 0.00 40 1014.2
20260901133404 92 179 2.0 7.0 0.00 0.00 0.00 40 1014.2
20260901131904 92 123 0.0 2.0 0.00 0.00 0.00 40 1014.3
20260901131404 92 201 1.0 6.0 0.00 0.00 0.00 39 1014.3
20260901124905 91 194 1.0 7.0 0.00 0.00 0.00 39 1014.4
20260901124405 90 209 0.0 7.0 0.00 0.00 0.00 37 1014.4
20260901123404 90 326 0.0 6.0 0.00 0.00 0.00 38 1014.6
20260901121404 90 286 0.0 0.0 0.00 0.00 0.00 37 1014.8
20260901120904 89 202 1.0 5.0 0.00 0.00 0.00 37 1014.9
20260901120404 89 218 0.0 6.0 0.00 0.00 0.00 37 1014.9
20260901113404 88 208 2.0 7.0 0.00 0.00 0.00 37 1015.3
20260901111905 87 276 0.0 0.0 0.00 0.00 0.00 38 1015.4
20260901111404 86 245 0.0 6.0 0.00 0.00 0.00 39 1015.5
20260901110904 86 224 0.0 5.0 0.00 0.00 0.00 39 1015.5
20260901110405 86 261 0.0 3.0 0.00 0.00 0.00 39 1015.5
20260901104405 85 226 0.0 1.0 0.00 0.00 0.00 39 1015.8
20260901103905 86 225 0.0 2.0 0.00 0.00 0.00 39 1015.9
20260901103404 85 341 0.0 0.0 0.00 0.00 0.00 39 1015.8
20260901101904 83 243 0.0 0.0 0.00 0.00 0.00 40 1015.8
20260901101404 83 211 0.0 0.0 0.00 0.00 0.00 39 1015.8
20260901100905 83 185 0.0 0.0 0.00 0.00 0.00 40 1015.8
20260901094904 82 147 0.0 0.0 0.00 0.00 0.00 43 1015.8
20260901093904 82 187 1.0 3.0 0.00 0.00 0.00 43 1015.9
20260901093405 82 148 0.0 2.0 0.00 0.00 0.00 43 1015.8
20260901091905 81 63 0.0 0.0 0.00 0.00 0.00 45 1015.8
20260901091404 81 55 0.0 0.0 0.00 0.00 0.00 46 1015.8
20260901090904 81 45 0.0 0.0 0.00 0.00 0.00 46 1015.7
20260901084904 79 51 0.0 0.0 0.00 0.00 0.00 50 1015.8
20260901084405 78 49 0.0 3.0 0.00 0.00 0.00 50 1015.8
20260901083905 78 26 0.0 0.0 0.00 0.00 0.00 49 1015.8
20260901083405 78 24 0.0 2.0 0.00 0.00 0.00 50 1015.8
20260901081905 77 12 0.0 1.0 0.00 0.00 0.00 50 1015.7
20260901081405 77 12 0.0 1.0 0.00 0.00 0.00 51 1015.7
20260901080905 77 12 0.0 0.0 0.00 0.00 0.00 52 1015.7
20260901074405 75 12 0.0 0.0 0.00 0.00 0.00 55 1015.6
20260901073404 74 11 0.0 0.0 0.00 0.00 0.00 55 1015.6
20260901071904 73 11 0.0 0.0 0.00 0.00 0.00 56 1015.6
20260901071405 73 11 0.0 0.0 0.00 0.00 0.00 56 1015.5
20260901070905 72 11 0.0 0.0 0.00 0.00 0.00 57 1015.4
20260901070404 72 6 2.0 3.0 0.00 0.00 0.00 57 1015.4
20260901064905 71 347 0.0 0.0 0.00 0.00 0.00 59 1015.2
20260901064404 71 346 0.0 0.0 0.00 0.00 0.00 59 1015.2
20260901063904 70 346 0.0 0.0 0.00 0.00 0.00 60 1015.1
20260901063405 70 346 0.0 0.0 0.00 0.00 0.00 60 1015.0
20260901061904 70 348 0.0 0.0 0.00 0.00 0.00 59 1014.8
20260901061404 69 348 0.0 0.0 0.00 0.00 0.00 59 1014.8
20260901060904 69 348 0.0 0.0 0.00 0.00 0.00 60 1014.7
20260901060404 69 348 0.0 0.0 0.00 0.00 0.00 60 1014.8
20260901054905 69 350 0.0 0.0 0.00 0.00 0.00 59 1014.7
20260901054405 69 10 0.0 0.0 0.00 0.00 0.00 59 1014.6
20260901053904 69 38 0.0 0.0 0.00 0.00 0.00 58 1014.6
20260901053404 69 38 0.0 5.0 0.00 0.00 0.00 58 1014.6
20260901051904 70 350 0.0 0.0 0.00 0.00 0.00 57 1014.4
20260901051404 70 350 1.0 6.0 0.00 0.00 0.00 57 1014.4
20260901050904 70 347 3.0 6.0 0.00 0.00 0.00 57 1014.3
20260901044904 70 4 2.0 6.0 0.00 0.00 0.00 54 1014.2
20260901043405 70 329 0.0 0.0 0.00 0.00 0.00 54 1014.2
20260901041905 70 333 0.0 0.0 0.00 0.00 0.00 53 1014.4
20260901040905 70 337 0.0 0.0 0.00 0.00 0.00 54 1014.6
20260901040405 70 337 0.0 0.0 0.00 0.00 0.00 55 1014.5
20260901034905 70 337 0.0 0.0 0.00 0.00 0.00 57 1014.7
20260901034404 70 341 0.0 0.0 0.00 0.00 0.00 59 1014.6
20260901033904 70 341 0.0 3.0 0.00 0.00 0.00 59 1014.7
20260901033404 70 342 1.0 5.0 0.00 0.00 0.00 60 1014.6
20260901030904 71 355 0.0 3.0 0.00 0.00 0.00 67 1014.6
20260901030405 71 355 1.0 3.0 0.00 0.00 0.00 68 1014.6
20260901024904 72 263 0.0 0.0 0.00 0.00 0.00 67 1014.6
20260901024404 72 263 0.0 0.0 0.00 0.00 0.00 67 1014.6
20260901023904 72 263 0.0 0.0 0.00 0.00 0.00 67 1014.6
20260901023405 72 264 0.0 0.0 0.00 0.00 0.00 67 1014.6
20260901021904 73 263 0.0 0.0 0.00 0.00 0.00 65 1014.8
20260901021404 73 263 0.0 0.0 0.00 0.00 0.00 65 1014.8
20260901020905 73 263 0.0 1.0 0.00 0.00 0.00 65 1014.8
20260901020405 73 268 2.0 6.0 0.00 0.00 0.00 64 1014.8
20260901014904 73 252 1.0 3.0 0.00 0.00 0.00 63 1014.9
20260901014404 73 250 2.0 5.0 0.00 0.00 0.00 63 1014.9
20260901013405 73 252 1.0 6.0 0.00 0.00 0.00 63 1015.0
20260901011405 73 215 1.0 6.0 0.00 0.00 0.00 65 1015.0
20260901010905 73 231 1.0 3.0 0.00 0.00 0.00 66 1015.0
20260901010405 73 222 0.0 7.0 0.00 0.00 0.00 66 1014.9
20260901004904 72 216 0.0 8.0 0.00 0.00 0.00 66 1014.9
20260901004404 72 205 4.0 6.0 0.00 0.00 0.00 66 1015.0
20260901003904 72 202 3.0 6.0 0.00 0.00 0.00 66 1015.0
20260901001405 71 175 2.0 5.0 0.00 0.00 0.00 63 1015.0
20260901000906 71 185 2.0 5.0 0.00 0.00 0.00 62 1014.9
20260901000405 71 196 1.0 6.0 0.00 0.00 0.00 61 1015.0
20260831234904 71 187 0.0 0.0 0.00 0.00 0.00 62 1014.7
20260831234404 71 162 0.0 3.0 0.00 0.00 0.00 61 1014.6
20260831233904 72 180 0.0 2.0 0.00 0.00 0.00 60 1014.6
20260831233404 72 195 2.0 6.0 0.00 0.00 0.00 59 1014.6
20260831231905 72 183 1.0 3.0 0.00 0.00 0.00 59 1014.5
20260831231405 72 180 1.0 3.0 0.00 0.00 0.00 59 1014.5
20260831230904 72 164 1.0 5.0 0.00 0.00 0.00 59 1014.5
20260831230404 72 181 0.0 3.0 0.00 0.00 0.00 60 1014.5
20260831224404 73 135 0.0 0.0 0.00 0.00 0.00 61 1014.3
20260831223904 74 126 0.0 0.0 0.00 0.00 0.00 60 1014.2
20260831223405 74 145 0.0 0.0 0.00 0.00 0.00 58 1014.2